Creek Data

    Home     View Charts     View Raw Data     Messages

ID Distance Battery Voltage Battery Current Internal Temp Internal Humidity External Temp Solar Input rssi snr Time Stamp Record
64588 15.1 3.81 5 73 44 59 5.1 -77 8 01/27/2026 02:15 PM 47347
64587 15.1 3.80 5 73 43 59 5.1 -76 8 01/27/2026 02:00 PM 47346
64586 15.1 3.90 0 72 42 59 5.1 -76 8 01/27/2026 01:45 PM 47345
64585 15.1 3.79 5 71 42 59 5.1 -75 8 01/27/2026 01:30 PM 47344
64584 15.1 4.06 6 68 43 57 5.1 -75 8 01/27/2026 01:15 PM 47343
64583 15.0 3.79 0 66 43 54 5.1 -75 8 01/27/2026 01:00 PM 47342
64582 15.0 3.79 6 64 44 52 5.1 -76 8 01/27/2026 12:45 PM 47341
64581 15.1 3.80 0 63 44 54 5.1 -75 8 01/27/2026 12:30 PM 47340
64580 15.0 3.79 6 59 45 52 5.1 -75 7 01/27/2026 12:15 PM 47339
64579 15.0 3.79 6 58 45 51 5.1 -75 8 01/27/2026 12:00 PM 47338
64578 14.9 3.79 6 54 47 51 5.1 -76 8 01/27/2026 11:45 AM 47337
64577 14.9 3.80 6 53 47 49 5.1 -75 8 01/27/2026 11:30 AM 47336
64576 14.9 3.79 7 52 46 49 5.1 -87 7 01/27/2026 11:15 AM 47335
64575 14.9 3.79 6 51 46 46 5.1 -80 3 01/27/2026 11:00 AM 47334
64574 14.9 3.80 0 49 46 46 5.1 -79 7 01/27/2026 10:45 AM 47333
64573 14.9 3.84 8 48 46 45 5.1 -79 7 01/27/2026 10:30 AM 47332
64572 14.9 3.83 0 47 46 44 5.1 -79 8 01/27/2026 10:15 AM 47331
64571 14.9 4.02 92 46 46 43 4.5 -79 7 01/27/2026 10:00 AM 47330
64570 14.9 4.03 66 44 47 43 4.5 -79 7 01/27/2026 09:45 AM 47329
64569 14.9 3.91 64 43 47 42 4.5 -81 8 01/27/2026 09:30 AM 47328
64568 14.9 3.87 60 42 47 41 4.5 -80 7 01/27/2026 09:15 AM 47327
64567 14.9 3.87 41 42 47 41 4.5 -80 6 01/27/2026 09:00 AM 47326
64566 14.9 4.00 48 40 47 39 4.5 -80 7 01/27/2026 08:45 AM 47325
64565 14.8 3.76 0 40 48 39 4.5 -82 8 01/27/2026 08:30 AM 47324
64564 14.8 3.62 6 39 48 39 4.5 -82 7 01/27/2026 08:15 AM 47323